Regional Weather Roundup
Issued by NWS Green Bay, WI

Home | Current Version | Previous Version | Text Only | Print | Product List | Glossary On
Versions: 1 2 3 4 5 6 7 8 9 10 11 12 13 14 15 16 17 18 19 20 21 22 23 24 25 26 27 28 29 30 31 32 33 34 35 36 37 38 39 40 41 42 43 44 45 46 47 48 49 50
616
ASUS43 KGRB 120411
RWRGRB

NORTH-CENTRAL AND NORTHEAST WISCONSIN REGIONAL WEATHER ROUNDUP
NATIONAL WEATHER SERVICE GREEN BAY WI
1000 PM CST THU FEB 11 2016

WIZ005-009-010>012-018-019-120500-
NORTH CENTRAL WISCONSIN

CITY           SKY/WX    TMP DP  RH WIND       PRES   REMARKS
IRONWOOD       CLOUDY    10   0  61 W14       30.07S WCI  -5
MANITOWISH WTR CLOUDY     9  -4  54 W10       30.06S WCI  -5
ARBOR VITAE    CLOUDY    11  -4  51 W6        30.06S WCI   2
EAGLE RIVER    CLOUDY    11  -6  45 W10G17    30.04F WCI  -3
LAND O LAKES   CLOUDY    10  -4  51 W7        30.04F WCI   0
RHINELANDER    CLOUDY    10  -3  55 W14       30.07S WCI  -6
PHILLIPS       CLOUDY    10  -2  57 W5        30.10S WCI   2
ANTIGO         CLOUDY    10  -3  55 W10       30.09S WCI  -4
TOMAHAWK       CLOUDY    10  -3  54 W12       30.11S WCI  -4
MERRILL        CLOUDY    12  -2  53 W8        30.12F WCI   0
$$

WIZ013-073-120500-
NORTHEAST WISCONSIN

CITY           SKY/WX    TMP DP  RH WIND       PRES   REMARKS
IRON MOUNTAIN  CLOUDY    14  -4  44 W12       30.05F WCI   0
MARINETTE      CLOUDY    16  -4  41 W8        30.12F WCI   5
OCONTO         CLOUDY    15  -2  47 W10       30.15F WCI   2
$$

WIZ017-030-035>037-045-120500-
CENTRAL WISCONSIN

CITY           SKY/WX    TMP DP  RH WIND       PRES   REMARKS
MEDFORD        CLOUDY    11  -1  59 W7        30.12S WCI   1
WAUSAU         CLOUDY    14  -1  51 W13       30.13F WCI   0
MOSINEE        CLOUDY    14   1  57 W10       30.15S WCI   1
MARSHFIELD     CLOUDY    14  -1  51 W9        30.14F WCI   2
WISC RAPIDS    CLOUDY    15  -3  44 W9        30.19F WCI   3
STEVENS POINT  CLOUDY    13  -3  48 W6        30.16F WCI   4
WAUPACA        CLOUDY    18  -1  43 W9        30.18F WCI   6
SHAWANO        CLOUDY    17  -1  46 W6        30.16S WCI   8
CLINTONVILLE   CLOUDY    14   0  52 W7        30.16F WCI   4
WAUTOMA        CLOUDY    15  -2  47 W8        30.20F WCI   4
$$

WIZ038-039-048-051-120500-
FOX VALLEY

CITY           SKY/WX    TMP DP  RH WIND       PRES   REMARKS
NWS GREEN BAY  CLOUDY    15   0  51 SW8       30.17F WCI   4
APPLETON       CLOUDY    16  -2  45 SW10      30.15F WCI   3
OSHKOSH        CLOUDY    14   0  53 W5        30.19F WCI   6
FOND DU LAC    CLOUDY    14   1  56 SW7       30.20F WCI   4
$$

WIZ022-050-052-120500-
EAST CENTRAL WISCONSIN

CITY           SKY/WX    TMP DP  RH WIND       PRES   REMARKS
EPHRAIM        CLOUDY    14   1  57 W7        30.10F WCI   3
STURGEON BAY   CLOUDY    14  -2  48 SW14      30.15F WCI  -1
MANITOWOC      CLOUDY    15   2  56 W12       30.18F WCI   2
SHEBOYGAN      CLOUDY    15   0  51 W12       30.19F WCI   2
$$

LMZ563-521-522-541>543-120500-
LAKESHORE

STATION/POSITION TIME  TEMP    WIND        PRES    VSBY  WAVE
                       AIR SEA DIR/SP/G                  HT/PER
                 (UTC) (F)     (DEG/KT/KT) (MB)    (MI)  (FT/S)
SHEBOYGAN LKSHOR 0400   17     250/ 10/ 13 1024.1F
KEWAUNEE LKSHORE 0300   14                 1021.0
ALGOMA MARINA    0311          270/  7/ 13   N/A
CHAMBERS ISLAND  0300   17     210/ 10/ 18 1020.3
MENOMINEE LKSHOR 0300   16                 1019.7
$$




USA.gov is the U.S. government's official web portal to all federal, state and local government web resources and services.